Home   Weather   Bad Radkersburg   Past weeks

Flag for Austria Past Weather in Bad Radkersburg, Styria, Austria — Yesterday and Last 2 Weeks

Now
28 °F

Chilly.


Feels Like: 28 °F
Forecast: 22 / 45 °F
Wind: 1 mph from South

Location: Murska Sobota

Current Time: Dec 8, 2016 at 5:03:55 am

Latest Report: Dec 8, 2016 at 4:00 am


Visibility: N/A

Pressure: 30.70 "Hg

Humidity: 96%

Dew Point: 27 °F

Location of Bad RadkersburgLocation

Past Weather in Bad Radkersburg — Graph

°F

Bad Radkersburg Temperature Yesterday

Maximum temperature yesterday: 28 °F (at 1:00 am)
Minimum temperature yesterday: 26 °F (at 7:00 am)
Average temperature yesterday: 28 °F

High & Low Weather Summary for the Past Weeks

 TemperatureHumidityPressure
High65 °F (Nov 23, 2:00 pm)100% (Dec 6, 1:00 pm)30.75 "Hg (Dec 6, 1:00 pm)
Low22 °F (Nov 30, 1:00 am)38% (Nov 28, 3:00 pm)29.89 "Hg (Dec 2, 6:00 am)
Average36 °F83%30.27 "Hg
* Reported Nov 23 2:00 am — Dec 8 2:00 am, Bad Radkersburg, Weather by CustomWeather, © 2016

Note: Actual official high and low records may vary slightly from our data, if they occured in-between our weather recording intervals... More about our weather records

Advertising

Bad Radkersburg Weather History for the Previous 24 Hours

Scroll right to see more
 ConditionsComfort  
Time TempWeatherWind HumidityBarometerVisibility
2:00 am
Thu, Dec 8
28 °FChilly.1 mph96%30.71 "HgN/A
1:00 am28 °FChilly.1 mph96%30.71 "HgN/A
12:00 am28 °FChilly.1 mph96%30.72 "HgN/A
11:00 pm
Wed, Dec 7
28 °FChilly.1 mph96%30.73 "HgN/A
10:00 pm27 °FChilly.1 mph96%30.73 "HgN/A
9:00 pm27 °FChilly.1 mph96%30.74 "HgN/A
8:00 pm27 °FChilly.1 mph96%30.73 "HgN/A
7:00 pm27 °FFog.1 mph96%30.74 "Hg0 mi
6:00 pm28 °FChilly.1 mph96%30.73 "HgN/A
5:00 pm28 °FChilly.1 mph96%30.73 "HgN/A
4:00 pm28 °FChilly.1 mph96%30.73 "HgN/A
3:00 pm28 °FChilly.1 mph96%30.72 "HgN/A
2:00 pm28 °FFog.1 mph96%30.72 "Hg0 mi
1:00 pm28 °FFog.1 mph96%30.73 "Hg0 mi
12:00 pm28 °FChilly.1 mph96%30.75 "HgN/A
11:00 am27 °FChilly.2 mph96%30.75 "HgN/A
10:00 am27 °FChilly.1 mph96%30.75 "HgN/A
7:00 am26 °FFog.2 mph96%30.71 "Hg0 mi
6:00 am26 °FChilly.2 mph96%30.69 "HgN/A
5:00 am27 °FChilly.2 mph96%30.68 "HgN/A
Weather by CustomWeather, © 2016

See weather overviewHow to use our weather pages